Date,TemperatureHighF,TemperatureAvgF,TemperatureLowF,DewpointHighF,DewpointAvgF,DewpointLowF,HumidityHigh,HumidityAvg,HumidityLow,PressureMaxIn,PressureMinIn,WindSpeedMaxMPH,WindSpeedAvgMPH,GustSpeedMaxMPH,PrecipitationSumIn
2013-3-1,75,53,33,29,20,12,60,32,10,30.36,30.22,6,2,9,0.00
2013-3-2,85,60,37,31,25,1,69,34,4,30.34,30.14,7,1,10,0.00
2013-3-3,80,62,40,34,24,8,69,30,7,30.16,29.97,11,2,14,0.00
2013-3-4,72,62,47,34,29,18,56,30,16,30.11,29.93,18,3,21,0.00
2013-3-5,80,61,42,35,30,20,68,36,11,30.15,30.02,10,1,11,0.00
2013-3-6,81,64,48,40,31,20,62,33,13,30.09,29.93,7,1,14,0.00
2013-3-7,79,63,44,33,26,12,57,28,8,30.02,29.91,12,2,21,0.00
2013-3-8,68,57,44,48,37,28,71,49,28,30.00,29.81,22,4,29,0.03
2013-3-9,53,47,42,39,36,32,80,66,50,30.10,29.99,16,3,16,0.00
2013-3-10,66,51,37,39,33,25,90,55,22,30.18,30.07,8,2,11,0.00
2013-3-11,74,54,36,32,30,27,75,45,19,30.20,30.04,8,2,11,0.00
2013-3-12,82,60,37,35,30,22,76,40,11,30.13,30.02,8,2,11,0.00
2013-3-13,89,67,42,35,27,16,69,31,7,30.18,30.06,11,2,16,0.00
2013-3-14,92,71,48,31,19,-1,48,21,3,30.18,30.05,15,2,17,0.00
2013-3-15,93,71,50,30,21,-9,41,20,2,30.11,29.95,13,2,20,0.00
2013-3-16,88,70,48,30,20,-2,43,19,3,29.99,29.78,13,2,20,0.00
2013-3-17,83,66,50,27,21,12,37,20,7,29.98,29.85,20,3,24,0.00
2013-3-18,82,65,47,35,25,13,52,25,8,30.06,29.95,10,2,14,0.00
2013-3-19,80,65,49,37,29,23,51,29,13,30.09,29.98,12,2,17,0.00
2013-3-20,82,65,48,34,29,23,54,29,12,30.10,29.93,10,2,13,0.00
2013-3-21,77,65,50,36,31,25,51,31,17,29.92,29.78,8,2,15,0.00
2013-3-22,80,67,50,35,31,25,48,27,15,29.87,29.73,13,3,18,0.00
2013-3-23,75,61,45,33,20,-2,58,26,5,30.02,29.87,17,3,25,0.00
2013-3-24,76,58,38,17,6,-9,36,16,4,30.06,29.90,13,2,20,0.00
2013-3-25,80,62,39,19,14,9,37,18,7,30.05,29.93,10,2,15,0.00
2013-3-26,86,67,46,23,14,0,38,17,4,30.04,29.87,11,2,14,0.00
2013-3-27,85,69,48,23,18,11,33,16,6,30.06,29.94,11,2,16,0.00
2013-3-28,85,69,49,33,21,13,35,17,7,30.11,30.00,9,2,14,0.00
2013-3-29,86,70,50,34,21,9,40,18,6,30.14,30.03,10,2,13,0.00
2013-3-30,83,69,54,28,22,11,31,18,7,30.12,29.98,9,2,11,0.00
2013-3-31,86,68,46,32,26,20,50,24,10,30.10,29.95,9,2,14,0.00